ROMMA est une association bénévole à but non lucratif. Votre soutien est indispensable : ADHERER à ROMMA ou FAIRE un DON

Chambon - (38, Isère)

Oisans (2460 m)   Longitude: 06° 10' 42" E   Latitude: 45° 01' 32" N Station partenaire n°803
 

Détail journalier du     <<     >>

Température Humidité Vent Dir Rafale Dir. rafale Neige 1 Neige 2
Heure (°C) (%) (km/h) (km/h) (cm) (cm)
01:00 10.4602SSO7OSO31
02:00 10.3612ENE5ENE21
03:00 10.7586ENE13SO21
04:00 10.4587SO13SO21
05:00 10.1614NE9NE21
06:00 10.2595SSO10SSO21
07:00 10.1638SSO12SO21
08:00 10.0626SO13SO21
09:00 12.7562SSO6SSO10
10:00 13.4582N10NE00
11:00 14.1562NNE9NNE00
12:00 14.4572N10N00
13:00 14.5573O13ONO10
14:00 12.6636OSO17O21
15:00 11.27610SSO20SSO22
16:00 10.67712SSO25SO22
17:00 12.7707SSO21SSO11
18:00 13.0673NE16SO11
19:00 11.7716NE16O01
20:00 11.5714S12S21
21:00 10.2742SO7SO31
22:00 10.0741SSE4SSE21
23:00 10.0775SSE12SSO11
minuit 9.6798SSO13SO11

Graphique du 31-08-2019

 

Serveur OMMA